Regional Weather Roundup
Issued by NWS Cleveland, OH

Home | Current Version | Previous Version | Graphics & Text | Print | Product List | Glossary On
Versions: 1 2 3 4 5 6 7 8 9 10 11 12 13 14 15 16 17 18 19 20 21 22 23 24 25 26 27 28 29 30 31 32 33 34 35 36 37 38 39 40 41 42 43 44 45 46 47 48 49 50
000
ASUS41 KCLE 231102
RWRCLE
OHIO REGIONAL WEATHER ROUNDUP
NATIONAL WEATHER SERVICE CLEVELAND, OH
700 AM EDT SAT MAY 23 2015

NOTE: "FAIR" INDICATES FEW OR NO CLOUDS BELOW 12,000 FEET WITH NO
SIGNIFICANT WEATHER AND/OR OBSTRUCTIONS TO VISIBILITY.

OHZ001>008-015>018-024>027-034-035-043-044-231200-
   NORTHWEST OHIO

CITY           SKY/WX    TMP DP  RH WIND       PRES   REMARKS
DEFIANCE       PTCLDY    46  40  79 NE3       30.38R
FINDLAY        CLEAR     47  37  68 E5        30.37R
TOLEDO EXPRESS PTCLDY    41  40  96 CALM      30.38R
TOLEDO EXEC    CLEAR     45  40  82 SE3       30.39R
LIMA           CLEAR     48  37  65 SE6       30.37R
$$

OHZ009>014-019>023-028>033-038-089-231200-
   NORTHEAST OHIO

CITY           SKY/WX    TMP DP  RH WIND       PRES   REMARKS
CLE-HOPKINS    PTCLDY    44  33  65 S7        30.42R
CLE-LAKEFRONT  CLEAR     46  31  55 S10       30.39R
CUY CO. ARPT   PTCLDY    46  32  57 S9        30.40
LORAIN-ELYRIA  CLEAR     41  35  79 S3        30.40R
ASHTABULA      SUNNY     36  33  89 CALM      30.42R
AKRON-CANTON   PTCLDY    44  32  62 S5        30.40R
WOOSTER        CLEAR     38  34  85 CALM      30.41R
MANSFIELD      CLEAR     46  36  68 S7        30.39R
YOUNGSTOWN     PTCLDY    34  31  88 SE5       30.41R WCI  30
$$

OHZ042-051>053-060>062-070>072-077>081-231200-
  SOUTHWEST OHIO

CITY           SKY/WX    TMP DP  RH WIND       PRES   REMARKS
CINC-COVINGTON CLOUDY    55  49  80 SE3       30.35R
CINC-LUNKEN    CLOUDY    51  49  92 VRB3      30.36R
HAMILTON       CLOUDY    52  50  93 CALM      30.37R
DAYTON         CLOUDY    54  40  59 E8        30.37R
WRIGHT-PAT AFB CLOUDY    50  44  80 NE5       30.37R
DAYTON GENERAL CLOUDY    54  41  61 E9        30.35R
WILMINGTON     CLOUDY    52  39  61 SE6       30.37R
$$

OHZ036-037-039>041-045>050-054>059-063>069-073>076-082>088-231200-
  CENTRAL AND SOUTHEAST OHIO

CITY           SKY/WX    TMP DP  RH WIND       PRES   REMARKS
COLUMBUS       MOCLDY    46  39  76 CALM      30.38R
OSU AIRPORT    PTCLDY    45  37  73 E3        30.39R
BOLTON FIELD   NOT AVBL
RICKENBACK AFB NOT AVBL
NEWARK         PTCLDY    40  39  97 CALM      30.40R
MARION         CLEAR     44  35  70 S5        30.39R
LANCASTER      MOCLDY    49  39  68 S3        30.39R
ZANESVILLE     PTCLDY    40  37  89 CALM      30.40R
NEW PHILLY     CLEAR     41  36  82 CALM      30.42R
$$



USA.gov is the U.S. government's official web portal to all federal, state and local government web resources and services.